sat.trackr.live / text

‹ back to catalog

STARLINK-37775

NORAD 69348 · 2026-122V

PAYLOAD ACTIVE UNKNOWN

§ Identity

Operator
Country
US
Launch date
2026-06-03
Launch site
AFWTR
Launch vehicle
Mass (kg)
RCS (m²)

Purposes: comms

External: N2YO · Heavens-Above · Gunter

§ Orbital elements

Epoch: 2026-09-19T01:46:54.663456Z

Period
93.91 min
Inclination
97.2807°
Eccentricity
0.0001585
Mean motion
15.33441052 rev/d
Perigee alt
464.5 km
Apogee alt
466.6 km
Semi-major
6,843.7 km
B*
4.5253e-4
RAAN
290.7579°
Arg perigee
111.3179°
Mean anomaly
248.8233°
Rev number
1,658

§ Raw data

STARLINK-377751 69348U 26122V   26262.07424379  .00014561  00000+0  45253-3 0  99952 69348  97.2807 290.7579 0001585 111.3179 248.8233 15.33441052 16584

JSON: /api/v1/satellites/69348 · /tle

For live sub-satellite position, see the globe view (requires WebGL).

§ Visibility from observer

Set your observer location to see the next 7 days of passes ≥ 10°. The values pass through the URL so the page stays shareable.

No JS? Fill the form by hand. The geolocation button needs JavaScript.